Year,Month,Day,Hour,Minute,Value (Times are PST for barometer in hPa)
2008,01,05,00,00,974.06
2008,01,05,00,01,974.10
2008,01,05,00,02,974.10
2008,01,05,00,03,974.13
2008,01,05,00,04,974.11
2008,01,05,00,05,974.16
2008,01,05,00,06,974.16
2008,01,05,00,07,974.16
2008,01,05,00,08,974.13
2008,01,05,00,09,974.13
2008,01,05,00,10,974.10
2008,01,05,00,11,974.10
2008,01,05,00,12,974.10
2008,01,05,00,13,974.13
2008,01,05,00,14,974.10
2008,01,05,00,15,974.13
2008,01,05,00,16,974.14
2008,01,05,00,17,974.17
2008,01,05,00,18,974.20
2008,01,05,00,19,974.20
2008,01,05,00,20,974.21
2008,01,05,00,21,974.23
2008,01,05,00,22,974.23
2008,01,05,00,23,974.20
2008,01,05,00,24,974.19
2008,01,05,00,25,974.14
2008,01,05,00,26,974.20
2008,01,05,00,27,974.19
2008,01,05,00,28,974.17
2008,01,05,00,29,974.21
2008,01,05,00,30,974.23
2008,01,05,00,31,974.27
2008,01,05,00,32,974.34
2008,01,05,00,33,974.41
2008,01,05,00,34,974.47
2008,01,05,00,35,974.50
2008,01,05,00,36,974.51
2008,01,05,00,37,974.58
2008,01,05,00,38,974.61
2008,01,05,00,39,974.67
2008,01,05,00,40,974.71
2008,01,05,00,41,974.73
2008,01,05,00,42,974.65
2008,01,05,00,43,974.53
2008,01,05,00,44,974.47
2008,01,05,00,45,974.47
2008,01,05,00,46,974.46
2008,01,05,00,47,974.42
2008,01,05,00,48,974.36
2008,01,05,00,49,974.31
2008,01,05,00,50,974.38
2008,01,05,00,51,974.44
2008,01,05,00,52,974.47
2008,01,05,00,53,974.51
2008,01,05,00,54,974.54
2008,01,05,00,55,974.57
2008,01,05,00,56,974.57
2008,01,05,00,57,974.54
2008,01,05,00,58,974.54
2008,01,05,00,59,974.54
2008,01,05,01,00,974.57
2008,01,05,01,01,974.55
2008,01,05,01,02,974.60
2008,01,05,01,03,974.58
2008,01,05,01,04,974.62
2008,01,05,01,05,974.71
2008,01,05,01,06,974.74
2008,01,05,01,07,974.73
2008,01,05,01,08,974.69
2008,01,05,01,09,974.63
2008,01,05,01,10,974.59
2008,01,05,01,11,974.53
2008,01,05,01,12,974.47
2008,01,05,01,13,974.51
2008,01,05,01,14,974.58
2008,01,05,01,15,974.65
2008,01,05,01,16,974.71
2008,01,05,01,17,974.74
2008,01,05,01,18,974.70
2008,01,05,01,19,974.67
2008,01,05,01,20,974.67
2008,01,05,01,21,974.71
2008,01,05,01,22,974.77
2008,01,05,01,23,974.78
2008,01,05,01,24,974.82
2008,01,05,01,25,974.83
2008,01,05,01,26,974.77
2008,01,05,01,27,974.77
2008,01,05,01,28,974.77
2008,01,05,01,29,974.78
2008,01,05,01,30,974.84
2008,01,05,01,31,974.88
2008,01,05,01,32,974.92
2008,01,05,01,33,974.98
2008,01,05,01,34,975.03
2008,01,05,01,35,975.15
2008,01,05,01,36,975.22
2008,01,05,01,37,975.26
2008,01,05,01,38,975.32
2008,01,05,01,39,975.39
2008,01,05,01,40,975.42
2008,01,05,01,41,975.42
2008,01,05,01,42,975.42
2008,01,05,01,43,975.45
2008,01,05,01,44,975.46
2008,01,05,01,45,975.55
2008,01,05,01,46,975.56
2008,01,05,01,47,975.59
2008,01,05,01,48,975.55
2008,01,05,01,49,975.55
2008,01,05,01,50,975.59
2008,01,05,01,51,975.58
2008,01,05,01,52,975.57
2008,01,05,01,53,975.65
2008,01,05,01,54,975.66
2008,01,05,01,55,975.70
2008,01,05,01,56,975.75
2008,01,05,01,57,975.72
2008,01,05,01,58,975.77
2008,01,05,01,59,975.89
2008,01,05,02,00,976.15
2008,01,05,02,01,976.33
2008,01,05,02,02,976.30
2008,01,05,02,03,976.34
2008,01,05,02,04,976.37
2008,01,05,02,05,976.45
2008,01,05,02,06,976.54
2008,01,05,02,07,976.57
2008,01,05,02,08,976.56
2008,01,05,02,09,976.51
2008,01,05,02,10,976.53
2008,01,05,02,11,976.54
2008,01,05,02,12,976.59
2008,01,05,02,13,976.54
2008,01,05,02,14,976.61
2008,01,05,02,15,976.68
2008,01,05,02,16,976.77
2008,01,05,02,17,976.74
2008,01,05,02,18,976.77
2008,01,05,02,19,976.78
2008,01,05,02,20,976.83
2008,01,05,02,21,976.81
2008,01,05,02,22,976.88
2008,01,05,02,23,976.95
2008,01,05,02,24,977.02
2008,01,05,02,25,977.09
2008,01,05,02,26,977.15
2008,01,05,02,27,977.22
2008,01,05,02,28,977.32
2008,01,05,02,29,977.39
2008,01,05,02,30,977.41
2008,01,05,02,31,977.45
2008,01,05,02,32,977.49
2008,01,05,02,33,977.52
2008,01,05,02,34,977.52
2008,01,05,02,35,977.52
2008,01,05,02,36,977.53
2008,01,05,02,37,977.59
2008,01,05,02,38,977.68
2008,01,05,02,39,977.69
2008,01,05,02,40,977.72
2008,01,05,02,41,977.72
2008,01,05,02,42,977.68
2008,01,05,02,43,977.69
2008,01,05,02,44,977.74
2008,01,05,02,45,977.69
2008,01,05,02,46,977.79
2008,01,05,02,47,977.83
2008,01,05,02,48,977.89
2008,01,05,02,49,977.93
2008,01,05,02,50,977.97
2008,01,05,02,51,978.02
2008,01,05,02,52,978.04
2008,01,05,02,53,978.13
2008,01,05,02,54,978.20
2008,01,05,02,55,978.28
2008,01,05,02,56,978.27
2008,01,05,02,57,978.32
2008,01,05,02,58,978.28
2008,01,05,02,59,978.36
2008,01,05,03,00,978.37
2008,01,05,03,01,978.47
2008,01,05,03,02,978.53
2008,01,05,03,03,978.56
2008,01,05,03,04,978.53
2008,01,05,03,05,978.57
2008,01,05,03,06,978.58
2008,01,05,03,07,978.63
2008,01,05,03,08,978.64
2008,01,05,03,09,978.73
2008,01,05,03,10,978.70
2008,01,05,03,11,978.68
2008,01,05,03,12,978.74
2008,01,05,03,13,978.77
2008,01,05,03,14,978.77
2008,01,05,03,15,978.78
2008,01,05,03,16,978.80
2008,01,05,03,17,978.80
2008,01,05,03,18,978.85
2008,01,05,03,19,978.90
2008,01,05,03,20,978.90
2008,01,05,03,21,978.89
2008,01,05,03,22,978.84
2008,01,05,03,23,978.87
2008,01,05,03,24,978.91
2008,01,05,03,25,978.95
2008,01,05,03,26,978.94
2008,01,05,03,27,978.79
2008,01,05,03,28,978.93
2008,01,05,03,29,978.91
2008,01,05,03,30,979.01
2008,01,05,03,31,979.02
2008,01,05,03,32,979.09
2008,01,05,03,33,979.22
2008,01,05,03,34,979.29
2008,01,05,03,35,979.38
2008,01,05,03,36,979.38
2008,01,05,03,37,979.38
2008,01,05,03,38,979.36
2008,01,05,03,39,979.45
2008,01,05,03,40,979.41
2008,01,05,03,41,979.46
2008,01,05,03,42,979.52
2008,01,05,03,43,979.59
2008,01,05,03,44,979.50
2008,01,05,03,45,979.57
2008,01,05,03,46,979.48
2008,01,05,03,47,979.51
2008,01,05,03,48,979.51
2008,01,05,03,49,979.50
2008,01,05,03,50,979.58
2008,01,05,03,51,979.58
2008,01,05,03,52,979.62
2008,01,05,03,53,979.66
2008,01,05,03,54,979.72
2008,01,05,03,55,979.75
2008,01,05,03,56,979.75
2008,01,05,03,57,979.79
2008,01,05,03,58,979.86
2008,01,05,03,59,979.89
2008,01,05,04,00,979.86
2008,01,05,04,01,979.96
2008,01,05,04,02,979.99
2008,01,05,04,03,979.99
2008,01,05,04,04,980.00
2008,01,05,04,05,980.08
2008,01,05,04,06,980.16
2008,01,05,04,07,980.19
2008,01,05,04,08,980.24
2008,01,05,04,09,980.33
2008,01,05,04,10,980.31
2008,01,05,04,11,980.43
2008,01,05,04,12,980.44
2008,01,05,04,13,980.52
2008,01,05,04,14,980.47
2008,01,05,04,15,980.52
2008,01,05,04,16,980.60
2008,01,05,04,17,980.64
2008,01,05,04,18,980.66
2008,01,05,04,19,980.66
2008,01,05,04,20,980.67
2008,01,05,04,21,980.74
2008,01,05,04,22,980.77
2008,01,05,04,23,980.76
2008,01,05,04,24,980.70
2008,01,05,04,25,980.67
2008,01,05,04,26,980.78
2008,01,05,04,27,980.90
2008,01,05,04,28,980.91
2008,01,05,04,29,981.01
2008,01,05,04,30,981.05
2008,01,05,04,31,981.15
2008,01,05,04,32,981.22
2008,01,05,04,33,981.27
2008,01,05,04,34,981.24
2008,01,05,04,35,981.24
2008,01,05,04,36,981.26
2008,01,05,04,37,981.20
2008,01,05,04,38,981.14
2008,01,05,04,39,981.12
2008,01,05,04,40,981.03
2008,01,05,04,41,981.00
2008,01,05,04,42,981.26
2008,01,05,04,43,981.32
2008,01,05,04,44,981.12
2008,01,05,04,45,981.02
2008,01,05,04,46,981.17
2008,01,05,04,47,981.17
2008,01,05,04,48,981.16
2008,01,05,04,49,981.12
2008,01,05,04,50,981.24
2008,01,05,04,51,981.22
2008,01,05,04,52,981.23
2008,01,05,04,53,981.21
2008,01,05,04,54,981.22
2008,01,05,04,55,981.24
2008,01,05,04,56,981.27
2008,01,05,04,57,981.24
2008,01,05,04,58,981.27
2008,01,05,04,59,981.28
2008,01,05,05,00,981.34
2008,01,05,05,01,981.38
2008,01,05,05,02,981.35
2008,01,05,05,03,981.42
2008,01,05,05,04,981.48
2008,01,05,05,05,981.49
2008,01,05,05,06,981.54
2008,01,05,05,07,981.52
2008,01,05,05,08,981.66
2008,01,05,05,09,981.71
2008,01,05,05,10,981.72
2008,01,05,05,11,981.79
2008,01,05,05,12,981.86
2008,01,05,05,13,981.93
2008,01,05,05,14,981.99
2008,01,05,05,15,981.99
2008,01,05,05,16,981.99
2008,01,05,05,17,982.00
2008,01,05,05,18,982.09
2008,01,05,05,19,982.09
2008,01,05,05,20,982.12
2008,01,05,05,21,982.15
2008,01,05,05,22,982.12
2008,01,05,05,23,982.09
2008,01,05,05,24,982.09
2008,01,05,05,25,982.12
2008,01,05,05,26,982.09
2008,01,05,05,27,982.06
2008,01,05,05,28,982.16
2008,01,05,05,29,982.22
2008,01,05,05,30,982.23
2008,01,05,05,31,982.30
2008,01,05,05,32,982.35
2008,01,05,05,33,982.32
2008,01,05,05,34,982.33
2008,01,05,05,35,982.36
2008,01,05,05,36,982.39
2008,01,05,05,37,982.43
2008,01,05,05,38,982.47
2008,01,05,05,39,982.53
2008,01,05,05,40,982.53
2008,01,05,05,41,982.52
2008,01,05,05,42,982.49
2008,01,05,05,43,982.49
2008,01,05,05,44,982.49
2008,01,05,05,45,982.49
2008,01,05,05,46,982.49
2008,01,05,05,47,982.46
2008,01,05,05,48,982.46
2008,01,05,05,49,982.46
2008,01,05,05,50,982.43
2008,01,05,05,51,982.43
2008,01,05,05,52,982.44
2008,01,05,05,53,982.53
2008,01,05,05,54,982.57
2008,01,05,05,55,982.67
2008,01,05,05,56,982.73
2008,01,05,05,57,982.78
2008,01,05,05,58,982.86
2008,01,05,05,59,982.83
2008,01,05,06,00,982.83
2008,01,05,06,01,982.80
2008,01,05,06,02,982.77
2008,01,05,06,03,982.79
2008,01,05,06,04,982.73
2008,01,05,06,05,982.74
2008,01,05,06,06,982.81
2008,01,05,06,07,982.91
2008,01,05,06,08,982.92
2008,01,05,06,09,982.89
2008,01,05,06,10,982.83
2008,01,05,06,11,982.83
2008,01,05,06,12,982.84
2008,01,05,06,13,982.90
2008,01,05,06,14,982.87
2008,01,05,06,15,982.86
2008,01,05,06,16,982.85
2008,01,05,06,17,982.94
2008,01,05,06,18,983.05
2008,01,05,06,19,983.14
2008,01,05,06,20,983.14
2008,01,05,06,21,983.14
2008,01,05,06,22,983.14
2008,01,05,06,23,983.17
2008,01,05,06,24,983.20
2008,01,05,06,25,983.20
2008,01,05,06,26,983.17
2008,01,05,06,27,983.18
2008,01,05,06,28,983.27
2008,01,05,06,29,983.24
2008,01,05,06,30,983.28
2008,01,05,06,31,983.34
2008,01,05,06,32,983.34
2008,01,05,06,33,983.34
2008,01,05,06,34,983.37
2008,01,05,06,35,983.42
2008,01,05,06,36,983.51
2008,01,05,06,37,983.54
2008,01,05,06,38,983.59
2008,01,05,06,39,983.64
2008,01,05,06,40,983.65
2008,01,05,06,41,983.71
2008,01,05,06,42,983.68
2008,01,05,06,43,983.64
2008,01,05,06,44,983.68
2008,01,05,06,45,983.68
2008,01,05,06,46,983.64
2008,01,05,06,47,983.65
2008,01,05,06,48,983.75
2008,01,05,06,49,983.78
2008,01,05,06,50,983.81
2008,01,05,06,51,983.79
2008,01,05,06,52,983.88
2008,01,05,06,53,983.93
2008,01,05,06,54,983.98
2008,01,05,06,55,984.02
2008,01,05,06,56,983.98
2008,01,05,06,57,984.02
2008,01,05,06,58,984.05
2008,01,05,06,59,984.09
2008,01,05,07,00,984.12
2008,01,05,07,01,984.13
2008,01,05,07,02,984.19
2008,01,05,07,03,984.22
2008,01,05,07,04,984.23
2008,01,05,07,05,984.29
2008,01,05,07,06,984.32
2008,01,05,07,07,984.36
2008,01,05,07,08,984.37
2008,01,05,07,09,984.42
2008,01,05,07,10,984.46
2008,01,05,07,11,984.49
2008,01,05,07,12,984.53
2008,01,05,07,13,984.50
2008,01,05,07,14,984.56
2008,01,05,07,15,984.53
2008,01,05,07,16,984.56
2008,01,05,07,17,984.59
2008,01,05,07,18,984.59
2008,01,05,07,19,984.64
2008,01,05,07,20,984.69
2008,01,05,07,21,984.68
2008,01,05,07,22,984.62
2008,01,05,07,23,984.59
2008,01,05,07,24,984.59
2008,01,05,07,25,984.66
2008,01,05,07,26,984.66
2008,01,05,07,27,984.69
2008,01,05,07,28,984.69
2008,01,05,07,29,984.66
2008,01,05,07,30,984.69
2008,01,05,07,31,984.73
2008,01,05,07,32,984.76
2008,01,05,07,33,984.76
2008,01,05,07,34,984.81
2008,01,05,07,35,984.86
2008,01,05,07,36,984.86
2008,01,05,07,37,984.85
2008,01,05,07,38,984.80
2008,01,05,07,39,984.83
2008,01,05,07,40,984.86
2008,01,05,07,41,984.86
2008,01,05,07,42,984.90
2008,01,05,07,43,984.93
2008,01,05,07,44,984.94
2008,01,05,07,45,985.00
2008,01,05,07,46,984.97
2008,01,05,07,47,985.00
2008,01,05,07,48,984.98
2008,01,05,07,49,985.08
2008,01,05,07,50,985.13
2008,01,05,07,51,985.10
2008,01,05,07,52,985.14
2008,01,05,07,53,985.20
2008,01,05,07,54,985.20
2008,01,05,07,55,985.24
2008,01,05,07,56,985.23
2008,01,05,07,57,985.21
2008,01,05,07,58,985.27
2008,01,05,07,59,985.27
2008,01,05,08,00,985.30
2008,01,05,08,01,985.37
2008,01,05,08,02,985.41
2008,01,05,08,03,985.41
2008,01,05,08,04,985.41
2008,01,05,08,05,985.44
2008,01,05,08,06,985.45
2008,01,05,08,07,985.52
2008,01,05,08,08,985.58
2008,01,05,08,09,985.64
2008,01,05,08,10,985.64
2008,01,05,08,11,985.62
2008,01,05,08,12,985.68
2008,01,05,08,13,985.71
2008,01,05,08,14,985.72
2008,01,05,08,15,985.79
2008,01,05,08,16,985.88
2008,01,05,08,17,985.85
2008,01,05,08,18,985.85
2008,01,05,08,19,985.88
2008,01,05,08,20,985.95
2008,01,05,08,21,985.95
2008,01,05,08,22,985.95
2008,01,05,08,23,985.98
2008,01,05,08,24,986.02
2008,01,05,08,25,986.03
2008,01,05,08,26,986.05
2008,01,05,08,27,986.05
2008,01,05,08,28,986.05
2008,01,05,08,29,986.12
2008,01,05,08,30,986.15
2008,01,05,08,31,986.15
2008,01,05,08,32,986.15
2008,01,05,08,33,986.12
2008,01,05,08,34,986.15
2008,01,05,08,35,986.18
2008,01,05,08,36,986.22
2008,01,05,08,37,986.29
2008,01,05,08,38,986.29
2008,01,05,08,39,986.32
2008,01,05,08,40,986.32
2008,01,05,08,41,986.32
2008,01,05,08,42,986.33
2008,01,05,08,43,986.40
2008,01,05,08,44,986.46
2008,01,05,08,45,986.50
2008,01,05,08,46,986.56
2008,01,05,08,47,986.56
2008,01,05,08,48,986.59
2008,01,05,08,49,986.63
2008,01,05,08,50,986.74
2008,01,05,08,51,986.83
2008,01,05,08,52,986.83
2008,01,05,08,53,986.83
2008,01,05,08,54,986.84
2008,01,05,08,55,986.91
2008,01,05,08,56,987.03
2008,01,05,08,57,987.03
2008,01,05,08,58,987.00
2008,01,05,08,59,987.06
2008,01,05,09,00,987.13
2008,01,05,09,01,987.17
2008,01,05,09,02,987.13
2008,01,05,09,03,987.17
2008,01,05,09,04,987.18
2008,01,05,09,05,987.27
2008,01,05,09,06,987.27
2008,01,05,09,07,987.34
2008,01,05,09,08,987.40
2008,01,05,09,09,987.41
2008,01,05,09,10,987.51
2008,01,05,09,11,987.51
2008,01,05,09,12,987.54
2008,01,05,09,13,987.57
2008,01,05,09,14,987.61
2008,01,05,09,15,987.61
2008,01,05,09,16,987.64
2008,01,05,09,17,987.67
2008,01,05,09,18,987.71
2008,01,05,09,19,987.74
2008,01,05,09,20,987.78
2008,01,05,09,21,987.82
2008,01,05,09,22,987.88
2008,01,05,09,23,987.81
2008,01,05,09,24,987.78
2008,01,05,09,25,987.81
2008,01,05,09,26,987.84
2008,01,05,09,27,987.88
2008,01,05,09,28,987.95
2008,01,05,09,29,987.95
2008,01,05,09,30,988.01
2008,01,05,09,31,988.05
2008,01,05,09,32,988.08
2008,01,05,09,33,988.15
2008,01,05,09,34,988.11
2008,01,05,09,35,988.15
2008,01,05,09,36,988.18
2008,01,05,09,37,988.18
2008,01,05,09,38,988.21
2008,01,05,09,39,988.15
2008,01,05,09,40,988.16
2008,01,05,09,41,988.21
2008,01,05,09,42,988.15
2008,01,05,09,43,988.17
2008,01,05,09,44,988.11
2008,01,05,09,45,988.05
2008,01,05,09,46,988.11
2008,01,05,09,47,988.15
2008,01,05,09,48,988.15
2008,01,05,09,49,988.15
2008,01,05,09,50,988.12
2008,01,05,09,51,988.23
2008,01,05,09,52,988.32
2008,01,05,09,53,988.32
2008,01,05,09,54,988.32
2008,01,05,09,55,988.28
2008,01,05,09,56,988.35
2008,01,05,09,57,988.36
2008,01,05,09,58,988.42
2008,01,05,09,59,988.49
2008,01,05,10,00,988.55
2008,01,05,10,01,988.52
2008,01,05,10,02,988.49
2008,01,05,10,03,988.49
2008,01,05,10,04,988.45
2008,01,05,10,05,988.49
2008,01,05,10,06,988.52
2008,01,05,10,07,988.52
2008,01,05,10,08,988.55
2008,01,05,10,09,988.56
2008,01,05,10,10,988.62
2008,01,05,10,11,988.66
2008,01,05,10,12,988.62
2008,01,05,10,13,988.62
2008,01,05,10,14,988.66
2008,01,05,10,15,988.62
2008,01,05,10,16,988.62
2008,01,05,10,17,988.67
2008,01,05,10,18,988.72
2008,01,05,10,19,988.79
2008,01,05,10,20,988.83
2008,01,05,10,21,988.86
2008,01,05,10,22,988.93
2008,01,05,10,23,988.90
2008,01,05,10,24,988.93
2008,01,05,10,25,988.93
2008,01,05,10,26,988.93
2008,01,05,10,27,988.86
2008,01,05,10,28,988.83
2008,01,05,10,29,988.86
2008,01,05,10,30,988.83
2008,01,05,10,31,988.86
2008,01,05,10,32,988.86
2008,01,05,10,33,988.93
2008,01,05,10,34,989.00
2008,01,05,10,35,989.03
2008,01,05,10,36,989.06
2008,01,05,10,37,989.13
2008,01,05,10,38,989.13
2008,01,05,10,39,989.13
2008,01,05,10,40,989.13
2008,01,05,10,41,989.13
2008,01,05,10,42,989.16
2008,01,05,10,43,989.20
2008,01,05,10,44,989.16
2008,01,05,10,45,989.20
2008,01,05,10,46,989.13
2008,01,05,10,47,989.10
2008,01,05,10,48,989.13
2008,01,05,10,49,989.10
2008,01,05,10,50,989.10
2008,01,05,10,51,989.06
2008,01,05,10,52,989.00
2008,01,05,10,53,988.96
2008,01,05,10,54,988.93
2008,01,05,10,55,988.97
2008,01,05,10,56,989.08
2008,01,05,10,57,989.19
2008,01,05,10,58,989.10
2008,01,05,10,59,989.10
2008,01,05,11,00,989.14
2008,01,05,11,01,989.20
2008,01,05,11,02,989.23
2008,01,05,11,03,989.27
2008,01,05,11,04,989.23
2008,01,05,11,05,989.23
2008,01,05,11,06,989.23
2008,01,05,11,07,989.28
2008,01,05,11,08,989.37
2008,01,05,11,09,989.37
2008,01,05,11,10,989.37
2008,01,05,11,11,989.33
2008,01,05,11,12,989.37
2008,01,05,11,13,989.37
2008,01,05,11,14,989.37
2008,01,05,11,15,989.40
2008,01,05,11,16,989.37
2008,01,05,11,17,989.36
2008,01,05,11,18,989.27
2008,01,05,11,19,989.33
2008,01,05,11,20,989.33
2008,01,05,11,21,989.37
2008,01,05,11,22,989.40
2008,01,05,11,23,989.37
2008,01,05,11,24,989.33
2008,01,05,11,25,989.33
2008,01,05,11,26,989.27
2008,01,05,11,27,989.23
2008,01,05,11,28,989.23
2008,01,05,11,29,989.23
2008,01,05,11,30,989.23
2008,01,05,11,31,989.30
2008,01,05,11,32,989.23
2008,01,05,11,33,989.27
2008,01,05,11,34,989.27
2008,01,05,11,35,989.29
2008,01,05,11,36,989.23
2008,01,05,11,37,989.27
2008,01,05,11,38,989.30
2008,01,05,11,39,989.27
2008,01,05,11,40,989.30
2008,01,05,11,41,989.30
2008,01,05,11,42,989.30
2008,01,05,11,43,989.23
2008,01,05,11,44,989.23
2008,01,05,11,45,989.23
2008,01,05,11,46,989.27
2008,01,05,11,47,989.27
2008,01,05,11,48,989.28
2008,01,05,11,49,989.37
2008,01,05,11,50,989.41
2008,01,05,11,51,989.50
2008,01,05,11,52,989.50
2008,01,05,11,53,989.54
2008,01,05,11,54,989.54
2008,01,05,11,55,989.54
2008,01,05,11,56,989.50
2008,01,05,11,57,989.50
2008,01,05,11,58,989.50
2008,01,05,11,59,989.54
2008,01,05,12,00,989.57
2008,01,05,12,01,989.57
2008,01,05,12,02,989.58
2008,01,05,12,03,989.64
2008,01,05,12,04,989.64
2008,01,05,12,05,989.60
2008,01,05,12,06,989.64
2008,01,05,12,07,989.71
2008,01,05,12,08,989.77
2008,01,05,12,09,989.71
2008,01,05,12,10,989.67
2008,01,05,12,11,989.74
2008,01,05,12,12,989.77
2008,01,05,12,13,989.85
2008,01,05,12,14,989.94
2008,01,05,12,15,989.94
2008,01,05,12,16,989.94
2008,01,05,12,17,989.94
2008,01,05,12,18,989.94
2008,01,05,12,19,989.93
2008,01,05,12,20,989.84
2008,01,05,12,21,989.88
2008,01,05,12,22,989.94
2008,01,05,12,23,989.94
2008,01,05,12,24,989.98
2008,01,05,12,25,989.91
2008,01,05,12,26,989.94
2008,01,05,12,27,989.98
2008,01,05,12,28,990.01
2008,01,05,12,29,990.04
2008,01,05,12,30,989.98
2008,01,05,12,31,989.99
2008,01,05,12,32,990.08
2008,01,05,12,33,990.04
2008,01,05,12,34,990.01
2008,01,05,12,35,990.04
2008,01,05,12,36,990.04
2008,01,05,12,37,990.11
2008,01,05,12,38,990.08
2008,01,05,12,39,990.08
2008,01,05,12,40,990.11
2008,01,05,12,41,990.11
2008,01,05,12,42,990.16
2008,01,05,12,43,990.21
2008,01,05,12,44,990.18
2008,01,05,12,45,990.21
2008,01,05,12,46,990.21
2008,01,05,12,47,990.18
2008,01,05,12,48,990.18
2008,01,05,12,49,990.25
2008,01,05,12,50,990.25
2008,01,05,12,51,990.21
2008,01,05,12,52,990.25
2008,01,05,12,53,990.27
2008,01,05,12,54,990.21
2008,01,05,12,55,990.28
2008,01,05,12,56,990.25
2008,01,05,12,57,990.25
2008,01,05,12,58,990.25
2008,01,05,12,59,990.25
2008,01,05,13,00,990.25
2008,01,05,13,01,990.28
2008,01,05,13,02,990.28
2008,01,05,13,03,990.33
2008,01,05,13,04,990.38
2008,01,05,13,05,990.38
2008,01,05,13,06,990.35
2008,01,05,13,07,990.35
2008,01,05,13,08,990.38
2008,01,05,13,09,990.38
2008,01,05,13,10,990.39
2008,01,05,13,11,990.49
2008,01,05,13,12,990.45
2008,01,05,13,13,990.49
2008,01,05,13,14,990.49
2008,01,05,13,15,990.52
2008,01,05,13,16,990.49
2008,01,05,13,17,990.45
2008,01,05,13,18,990.45
2008,01,05,13,19,990.52
2008,01,05,13,20,990.52
2008,01,05,13,21,990.55
2008,01,05,13,22,990.59
2008,01,05,13,23,990.59
2008,01,05,13,24,990.59
2008,01,05,13,25,990.59
2008,01,05,13,26,990.62
2008,01,05,13,27,990.62
2008,01,05,13,28,990.62
2008,01,05,13,29,990.65
2008,01,05,13,30,990.69
2008,01,05,13,31,990.65
2008,01,05,13,32,990.65
2008,01,05,13,33,990.69
2008,01,05,13,34,990.69
2008,01,05,13,35,990.76
2008,01,05,13,36,990.72
2008,01,05,13,37,990.79
2008,01,05,13,38,990.76
2008,01,05,13,39,990.76
2008,01,05,13,40,990.76
2008,01,05,13,41,990.76
2008,01,05,13,42,990.76
2008,01,05,13,43,990.79
2008,01,05,13,44,990.86
2008,01,05,13,45,990.86
2008,01,05,13,46,990.86
2008,01,05,13,47,990.89
2008,01,05,13,48,990.93
2008,01,05,13,49,990.93
2008,01,05,13,50,990.93
2008,01,05,13,51,990.93
2008,01,05,13,52,990.93
2008,01,05,13,53,990.89
2008,01,05,13,54,990.89
2008,01,05,13,55,990.93
2008,01,05,13,56,990.86
2008,01,05,13,57,990.89
2008,01,05,13,58,990.93
2008,01,05,13,59,990.93
2008,01,05,14,00,990.89
2008,01,05,14,01,990.96
2008,01,05,14,02,990.96
2008,01,05,14,03,990.96
2008,01,05,14,04,990.89
2008,01,05,14,05,990.93
2008,01,05,14,06,990.99
2008,01,05,14,07,990.99
2008,01,05,14,08,990.96
2008,01,05,14,09,990.99
2008,01,05,14,10,990.99
2008,01,05,14,11,990.99
2008,01,05,14,12,990.99
2008,01,05,14,13,990.99
2008,01,05,14,14,991.03
2008,01,05,14,15,991.03
2008,01,05,14,16,991.06
2008,01,05,14,17,991.13
2008,01,05,14,18,991.16
2008,01,05,14,19,991.16
2008,01,05,14,20,991.13
2008,01,05,14,21,991.16
2008,01,05,14,22,991.20
2008,01,05,14,23,991.23
2008,01,05,14,24,991.20
2008,01,05,14,25,991.20
2008,01,05,14,26,991.20
2008,01,05,14,27,991.20
2008,01,05,14,28,991.20
2008,01,05,14,29,991.16
2008,01,05,14,30,991.23
2008,01,05,14,31,991.20
2008,01,05,14,32,991.23
2008,01,05,14,33,991.23
2008,01,05,14,34,991.23
2008,01,05,14,35,991.30
2008,01,05,14,36,991.30
2008,01,05,14,37,991.26
2008,01,05,14,38,991.33
2008,01,05,14,39,991.37
2008,01,05,14,40,991.40
2008,01,05,14,41,991.43
2008,01,05,14,42,991.43
2008,01,05,14,43,991.43
2008,01,05,14,44,991.47
2008,01,05,14,45,991.43
2008,01,05,14,46,991.50
2008,01,05,14,47,991.50
2008,01,05,14,48,991.57
2008,01,05,14,49,991.53
2008,01,05,14,50,991.53
2008,01,05,14,51,991.57
2008,01,05,14,52,991.53
2008,01,05,14,53,991.53
2008,01,05,14,54,991.60
2008,01,05,14,55,991.57
2008,01,05,14,56,991.64
2008,01,05,14,57,991.64
2008,01,05,14,58,991.67
2008,01,05,14,59,991.70
2008,01,05,15,00,991.70
2008,01,05,15,01,991.64
2008,01,05,15,02,991.70
2008,01,05,15,03,991.70
2008,01,05,15,04,991.74
2008,01,05,15,05,991.74
2008,01,05,15,06,991.81
2008,01,05,15,07,991.84
2008,01,05,15,08,991.84
2008,01,05,15,09,991.81
2008,01,05,15,10,991.84
2008,01,05,15,11,991.84
2008,01,05,15,12,991.87
2008,01,05,15,13,991.84
2008,01,05,15,14,991.94
2008,01,05,15,15,991.94
2008,01,05,15,16,991.98
2008,01,05,15,17,991.98
2008,01,05,15,18,992.01
2008,01,05,15,19,992.01
2008,01,05,15,20,992.04
2008,01,05,15,21,992.08
2008,01,05,15,22,992.11
2008,01,05,15,23,992.11
2008,01,05,15,24,992.08
2008,01,05,15,25,992.14
2008,01,05,15,26,992.08
2008,01,05,15,27,992.08
2008,01,05,15,28,992.11
2008,01,05,15,29,992.14
2008,01,05,15,30,992.14
2008,01,05,15,31,992.11
2008,01,05,15,32,992.11
2008,01,05,15,33,992.14
2008,01,05,15,34,992.14
2008,01,05,15,35,992.14
2008,01,05,15,36,992.18
2008,01,05,15,37,992.18
2008,01,05,15,38,992.18
2008,01,05,15,39,992.25
2008,01,05,15,40,992.25
2008,01,05,15,41,992.28
2008,01,05,15,42,992.28
2008,01,05,15,43,992.28
2008,01,05,15,44,992.28
2008,01,05,15,45,992.31
2008,01,05,15,46,992.28
2008,01,05,15,47,992.25
2008,01,05,15,48,992.25
2008,01,05,15,49,992.28
2008,01,05,15,50,992.28
2008,01,05,15,51,992.31
2008,01,05,15,52,992.35
2008,01,05,15,53,992.38
2008,01,05,15,54,992.38
2008,01,05,15,55,992.38
2008,01,05,15,56,992.42
2008,01,05,15,57,992.38
2008,01,05,15,58,992.38
2008,01,05,15,59,992.42
2008,01,05,16,00,992.42
2008,01,05,16,01,992.45
2008,01,05,16,02,992.42
2008,01,05,16,03,992.42
2008,01,05,16,04,992.45
2008,01,05,16,05,992.45
2008,01,05,16,06,992.48
2008,01,05,16,07,992.48
2008,01,05,16,08,992.48
2008,01,05,16,09,992.48
2008,01,05,16,10,992.58
2008,01,05,16,11,992.62
2008,01,05,16,12,992.65
2008,01,05,16,13,992.69
2008,01,05,16,14,992.66
2008,01,05,16,15,992.75
2008,01,05,16,16,992.72
2008,01,05,16,17,992.72
2008,01,05,16,18,992.75
2008,01,05,16,19,992.75
2008,01,05,16,20,992.75
2008,01,05,16,21,992.79
2008,01,05,16,22,992.79
2008,01,05,16,23,992.79
2008,01,05,16,24,992.82
2008,01,05,16,25,992.86
2008,01,05,16,26,992.92
2008,01,05,16,27,992.89
2008,01,05,16,28,992.89
2008,01,05,16,29,992.92
2008,01,05,16,30,992.92
2008,01,05,16,31,992.99
2008,01,05,16,32,993.06
2008,01,05,16,33,993.13
2008,01,05,16,34,993.13
2008,01,05,16,35,993.16
2008,01,05,16,36,993.09